GFSNE_850_temp_246.txt.gz
Temp
17 16 15 15 15 15 15 14 14 14 13 13 12 12 11 10 10 10 10 10 10 10 10 10 9 8 8 7 7 8 7 7 7 7 7 7 7 7
16 16 15 15 15 15 15 14 14 13 13 12 12 12 12 11 11 10 10 10 10 10 9 9 8 7 7 6 6 6 7 7 7 6 6 7 7 7
17 16 16 15 15 16 15 14 14 13 13 12 13 12 11 11 10 10 10 9 9 9 8 8 7 6 6 5 6 6 6 6 6 6 6 6 6 6
16 16 16 15 16 16 15 14 14 14 13 12 12 9 10 10 9 9 9 9 9 8 8 7 6 6 6 6 6 5 5 5 5 5 5 6 6 6
16 16 16 16 15 15 15 15 14 13 13 13 12 9 10 9 9 8 9 8 8 8 7 7 6 6 6 5 5 4 4 4 5 5 5 6 6 6
15 15 15 15 15 15 15 15 14 13 12 12 11 10 10 9 8 8 8 9 8 7 6 6 5 5 5 5 4 4 4 4 4 4 5 5 6 6
15 14 14 13 14 14 14 15 14 13 11 10 9 9 9 9 8 9 8 8 7 6 6 4 5 4 3 3 3 4 3 3 4 4 5 5 5 6
14 15 15 14 14 13 14 14 14 13 12 10 9 9 9 8 8 8 8 7 5 5 6 5 4 3 2 3 3 3 2 3 3 4 4 5 5 6
13 13 14 14 13 13 12 13 12 12 11 11 10 8 7 9 8 8 7 6 5 5 6 5 4 2 2 2 1 2 2 2 2 3 4 4 5 5
13 13 13 13 13 13 12 11 10 10 9 7 7 7 7 7 6 6 7 5 4 5 4 4 2 2 2 0 -0 2 1 1 2 3 3 3 4 4
12 12 12 12 11 11 11 11 9 8 6 5 4 4 5 4 4 5 5 4 4 3 3 2 2 3 2 0 0 1 0 0 1 1 0 -1 1 2
10 10 11 11 11 11 10 10 7 5 4 3 3 3 3 2 3 2 4 3 3 3 1 -0 0 1 2 -0 -2 -1 -1 -1 -1 -2 -2 -2 -4 -3
9 9 9 10 9 9 8 6 6 3 2 2 2 2 2 0 0 2 2 1 1 1 -0 -1 -1 -0 -1 -1 -2 -3 -2 -1 -2 -2 -2 -3 -4 -3
7 7 7 7 7 6 5 3 3 2 2 1 1 1 -0 -1 0 1 -0 -0 -0 -1 -1 -2 -2 -3 -4 -3 -3 -3 -3 -4 -4 -3 -3 -4 -4 -3
5 5 5 5 4 3 3 2 1 1 2 1 0 -0 0 -1 -0 -0 -2 -4 -3 -3 -3 -4 -4 -5 -5 -5 -4 -4 -3 -5 -5 -4 -5 -6 -5 -3
4 4 4 3 3 2 2 2 3 1 1 0 -0 -0 -1 -1 -2 -3 -5 -5 -4 -5 -5 -5 -6 -6 -5 -5 -5 -5 -5 -6 -5 -5 -5 -6 -6 -6
2 2 2 1 1 1 2 1 1 0 -1 -0 -1 -2 -2 -3 -3 -5 -5 -6 -6 -7 -7 -7 -7 -7 -6 -6 -6 -6 -6 -6 -5 -5 -5 -5 -6 -6
1 1 0 0 1 1 1 0 -0 -0 -0 -1 -2 -2 -2 -4 -5 -5 -6 -6 -7 -8 -8 -7 -7 -7 -7 -7 -7 -7 -6 -6 -5 -5 -5 -5 -5 -6
0 1 0 0 0 -0 -0 -0 -0 -1 -2 -2 -2 -2 -3 -5 -5 -6 -7 -6 -7 -7 -7 -8 -7 -6 -6 -7 -8 -8 -6 -6 -6 -5 -5 -6 -7 -8
-0 1 0 0 -1 -0 -1 -1 -2 -2 -2 -3 -4 -4 -5 -5 -6 -7 -6 -6 -5 -5 -7 -7 -7 -7 -7 -7 -9 -9 -8 -7 -7 -7 -7 -7 -8 -9
-1 -0 0 -1 -1 -0 -0 -1 -1 -2 -2 -3 -5 -5 -6 -6 -7 -7 -6 -6 -6 -6 -6 -7 -7 -7 -7 -8 -8 -9 -9 -9 -9 -8 -8 -8 -8 -9
-2 -1 -1 -1 -1 -1 -1 -2 -3 -3 -4 -5 -5 -6 -6 -7 -7 -7 -7 -6 -7 -7 -7 -8 -8 -8 -8 -7 -8 -9 -9 -9 -9 -9 -9 -9 -9 -10
-2 -2 -2 -1 -1 -2 -2 -3 -4 -4 -4 -5 -6 -7 -7 -7 -7 -7 -7 -7 -7 -7 -7 -8 -9 -9 -8 -8 -8 -9 -10 -10 -10 -9 -10 -10 -10 -10

GFSNE_850_temp_252.txt.gz
Temp
17 17 16 18 17 17 16 16 14 13 13 15 15 15 15 14 14 14 12 11 10 10 9 9 9 10 10 10 10 10 9 8 8 8 7 7 6 7
16 17 17 17 17 17 17 18 16 14 13 14 14 14 14 14 13 13 11 10 10 11 10 9 8 8 9 9 9 9 8 7 6 7 7 6 6 6
16 15 16 17 17 17 17 18 16 14 13 13 14 14 13 13 13 12 12 10 11 9 8 7 7 7 8 8 8 8 7 6 6 6 5 5 5 5
16 16 16 16 16 17 17 16 15 14 13 13 13 13 13 13 12 11 10 10 9 9 9 6 6 6 7 8 7 7 5 5 5 5 5 5 5 5
16 15 15 15 15 16 16 14 14 13 13 13 13 13 12 12 11 9 9 9 9 7 7 5 6 6 6 7 7 6 6 5 4 4 4 5 5 5
15 15 15 15 15 15 15 14 14 14 14 13 13 12 12 11 10 9 9 8 7 5 5 4 5 5 6 5 3 3 4 4 4 4 4 4 5 5
15 15 14 13 14 14 14 14 13 13 13 13 12 11 11 11 11 10 9 8 5 3 3 3 4 4 3 2 3 2 3 3 3 4 4 4 4 4
14 14 13 13 13 14 13 13 13 13 13 12 11 12 11 11 10 9 8 4 1 2 2 3 3 1 0 2 2 2 1 3 3 3 3 4 3 3
12 12 12 12 12 12 12 12 12 12 12 12 12 12 11 10 9 8 7 5 2 3 2 3 2 1 1 -0 1 1 1 2 2 2 3 3 3 3
12 12 12 12 11 11 11 11 11 11 12 11 11 11 10 9 8 7 6 4 3 3 2 2 1 0 -0 -0 -0 -0 0 1 1 2 2 2 3 2
11 11 11 11 9 9 10 10 11 11 10 11 11 9 9 8 7 6 4 3 2 1 2 2 1 -1 -1 -2 -1 -1 -1 0 0 1 2 2 2 0
10 11 11 11 10 9 9 9 10 10 10 10 9 8 7 5 5 3 4 3 2 2 2 0 0 -0 -2 -2 -3 -2 -1 -0 0 1 0 -0 -1 -0
9 10 10 10 9 9 9 9 9 9 8 8 7 6 4 4 2 1 1 2 2 2 1 0 0 -1 -1 -3 -3 -2 -2 -1 -0 -0 -1 -2 -2 -2
8 9 10 9 8 8 8 8 8 7 5 5 5 4 2 1 1 1 1 1 1 0 1 0 0 -1 -1 -2 -3 -3 -2 -2 -2 -1 -2 -3 -3 -4
6 7 8 8 7 7 6 6 5 4 4 3 3 2 1 1 1 0 0 -0 -0 0 -1 -0 -1 -1 -2 -2 -3 -4 -3 -4 -3 -3 -3 -3 -4 -4
6 6 6 4 4 4 4 4 5 3 3 2 2 1 -0 -0 -0 -1 -1 -1 -1 -3 -3 -3 -3 -4 -3 -3 -4 -4 -4 -4 -4 -4 -4 -5 -5 -5
5 5 5 3 3 3 2 2 3 2 2 2 1 0 -0 -1 -2 -2 -2 -2 -2 -4 -5 -5 -5 -4 -5 -5 -4 -5 -5 -5 -5 -4 -4 -4 -4 -5
5 4 2 2 2 2 1 1 1 1 1 1 0 0 -1 -2 -2 -3 -4 -4 -4 -6 -6 -6 -5 -5 -6 -6 -7 -6 -6 -5 -6 -5 -6 -4 -5 -6
4 4 3 1 1 2 1 0 0 0 0 -0 0 -0 -1 -2 -3 -5 -5 -6 -6 -6 -7 -7 -7 -6 -6 -7 -8 -8 -6 -6 -6 -6 -6 -6 -8 -9
4 4 4 1 1 1 1 -0 -1 -1 -1 -0 -1 -1 -2 -3 -4 -5 -5 -6 -7 -7 -8 -7 -7 -6 -6 -6 -9 -9 -9 -7 -7 -7 -7 -7 -9 -9
4 3 3 1 0 0 -0 0 -1 -1 -1 -1 -2 -2 -3 -4 -4 -5 -6 -6 -6 -7 -7 -7 -7 -7 -6 -7 -8 -9 -9 -9 -9 -8 -8 -8 -9 -10
2 2 1 -0 -0 -0 -1 -1 -2 -2 -2 -2 -3 -3 -4 -4 -4 -6 -6 -7 -7 -7 -6 -7 -7 -8 -7 -7 -8 -9 -9 -10 -9 -9 -9 -9 -9 -11
-0 -1 -1 -1 -1 -1 -1 -3 -2 -2 -3 -3 -3 -4 -4 -5 -5 -5 -6 -7 -7 -7 -6 -7 -8 -8 -8 -7 -7 -8 -9 -9 -10 -10 -10 -10 -10 -11

GFSNE_850_temp_255.txt.gz
Temp
14 14 14 15 16 16 16 15 13 14 14 14 16 18 18 17 16 15 14 14 13 13 13 12 12 11 9 8 8 8 9 9 9 8 8 8 8 8
14 14 14 13 14 14 15 14 14 14 13 15 14 17 17 17 16 14 14 13 13 12 11 11 9 9 8 7 8 7 8 8 8 7 7 7 7 7
14 15 15 15 14 14 13 15 14 13 13 13 13 15 16 16 15 14 12 12 12 11 10 11 10 9 7 6 6 6 7 8 8 7 7 7 7 6
15 16 17 17 15 16 14 16 15 15 14 13 13 14 14 13 13 12 12 11 10 8 10 8 8 5 4 5 5 5 6 7 6 6 6 6 6 6
13 16 17 15 14 15 15 15 15 13 14 13 13 13 13 13 13 12 12 11 8 7 8 8 6 6 3 4 4 5 4 5 6 6 5 5 5 6
14 15 14 13 13 15 14 13 14 13 13 13 12 12 12 12 12 11 11 9 7 7 8 6 3 3 4 4 3 4 4 3 3 4 5 5 4 5
15 13 13 13 13 13 13 13 13 13 12 12 12 12 12 12 12 12 10 8 7 7 6 4 4 3 4 3 3 4 4 2 3 4 4 4 4 4
11 12 13 14 13 12 12 13 12 13 13 12 12 13 12 12 11 11 10 8 6 6 4 3 2 2 3 2 2 3 2 3 3 3 3 3 4 4
12 12 12 11 11 11 11 12 12 12 12 12 12 12 12 12 11 10 10 8 7 5 2 2 2 2 1 1 1 2 2 1 2 2 3 3 3 3
10 11 12 12 11 11 10 11 11 12 11 12 11 11 11 10 10 10 8 8 5 3 2 2 1 1 0 -0 0 1 1 1 1 2 2 3 3 1
10 10 11 12 12 11 11 9 9 10 10 11 10 10 10 10 9 9 8 7 3 1 1 1 0 -1 -1 -1 -1 -1 -0 0 1 2 2 3 1 -0
8 9 10 10 11 11 11 10 9 9 10 10 10 11 10 9 8 7 6 6 3 -0 -0 0 0 -0 -2 -2 -2 -1 -1 -0 0 1 1 1 0 -0
7 8 8 9 10 10 11 10 9 9 9 9 8 8 8 7 6 5 5 3 3 3 2 1 1 -0 0 -3 -3 -2 -1 -1 -1 -1 -1 -2 -2 -0
7 7 7 7 8 9 7 8 8 8 8 7 6 6 5 5 4 3 2 1 1 2 2 1 1 0 0 -2 -3 -3 -3 -2 -1 -2 -3 -3 -2 -3
6 6 7 7 7 7 6 6 6 6 6 6 5 4 3 3 3 1 1 0 0 0 0 -0 0 0 -1 -2 -3 -3 -3 -3 -2 -3 -3 -4 -4 -4
6 6 6 6 6 5 4 4 4 4 4 4 4 3 2 1 0 0 0 -0 -0 -1 -1 -1 -1 -1 -1 -3 -3 -3 -3 -4 -4 -3 -3 -4 -4 -4
5 5 6 6 6 5 3 3 3 2 2 2 2 2 1 0 -0 -1 -1 -2 -1 -3 -2 -3 -3 -3 -4 -4 -3 -4 -4 -5 -5 -5 -5 -5 -5 -5
3 4 5 5 5 4 1 2 2 2 1 0 0 1 0 -1 -1 -3 -3 -2 -2 -3 -3 -5 -5 -5 -5 -5 -5 -5 -5 -5 -6 -6 -7 -7 -8 -8
2 3 4 5 5 3 2 2 1 1 1 -1 -1 -1 -1 -2 -2 -3 -4 -3 -3 -3 -4 -5 -5 -5 -7 -8 -7 -6 -5 -6 -6 -7 -8 -9 -9 -9
0 2 3 4 4 1 1 1 0 -1 -1 -1 -2 -2 -2 -3 -4 -4 -5 -4 -4 -5 -6 -6 -6 -6 -6 -7 -7 -8 -7 -7 -7 -8 -9 -9 -10 -10
0 1 2 3 3 2 0 0 -0 -1 -2 -2 -2 -3 -4 -4 -5 -5 -5 -5 -5 -6 -7 -7 -7 -6 -5 -6 -8 -9 -8 -8 -9 -10 -10 -10 -10 -11
-0 1 1 1 0 1 -0 -0 -1 -2 -2 -3 -3 -3 -4 -5 -5 -6 -6 -6 -7 -7 -7 -7 -7 -7 -7 -9 -10 -9 -10 -10 -9 -9 -9 -9 -9 -11
-1 -0 0 -0 -0 0 -0 -1 -1 -3 -3 -3 -4 -4 -4 -5 -5 -5 -6 -7 -7 -7 -7 -7 -8 -8 -8 -10 -9 -10 -10 -11 -11 -10 -9 -9 -9 -9

GFSNE_850_temp_261.txt.gz
Temp
15 15 16 16 15 15 15 16 16 14 14 14 14 15 17 16 16 15 16 16 17 16 16 16 15 13 12 12 10 9 9 8 8 8 8 7 6 7
13 14 14 15 15 16 16 16 16 16 14 17 17 16 16 15 16 16 16 16 17 16 15 14 15 13 11 11 9 8 8 8 8 6 6 7 5 6
14 14 14 15 15 15 15 15 15 15 15 15 19 17 15 16 15 15 16 15 16 15 16 14 13 12 11 10 8 8 7 7 6 5 5 5 5 5
14 14 14 14 14 14 14 15 15 16 14 13 15 14 15 13 14 15 15 15 14 15 12 11 12 11 8 7 7 7 6 6 5 5 4 4 4 5
13 13 14 14 14 14 14 13 13 13 12 13 16 14 13 12 13 13 14 13 13 12 12 11 11 10 7 7 6 6 5 4 3 3 3 4 4 5
12 12 13 13 13 13 13 12 12 12 12 14 13 13 12 12 12 12 12 12 12 12 12 11 10 9 6 6 6 5 4 3 3 2 3 3 4 4
11 11 12 12 12 12 12 12 12 12 13 13 12 12 12 13 13 12 12 12 12 11 10 10 9 7 5 5 4 3 3 3 3 3 4 4 4 4
10 10 11 11 11 11 11 12 12 12 12 13 12 12 14 13 12 12 12 11 11 11 10 8 7 6 4 4 3 2 2 3 3 3 3 4 4 3
9 9 9 8 10 10 10 10 11 11 12 12 12 12 12 12 12 11 11 11 11 10 10 8 5 4 3 2 1 1 2 2 2 3 3 3 3 3
9 9 9 9 9 9 10 11 11 11 11 11 11 11 11 11 11 11 11 11 10 8 7 6 5 3 2 0 -0 -0 0 1 2 2 2 3 3 2
7 8 8 8 9 9 9 10 11 11 11 11 11 10 11 10 10 10 10 10 9 8 7 7 4 0 -1 -2 -2 -1 -1 0 1 1 1 2 1 1
6 6 6 7 8 8 8 9 12 11 10 11 11 11 11 10 9 9 9 9 9 8 7 4 2 0 -3 -3 -3 -2 -1 -1 0 1 0 1 0 0
5 5 4 6 7 7 7 8 8 8 8 9 9 9 9 8 8 8 9 9 8 7 7 4 2 0 -1 -3 -4 -3 -2 -2 -1 -2 -2 -2 -1 -1
4 5 5 4 5 6 6 6 7 7 7 8 7 5 6 6 7 7 7 6 6 5 5 5 3 1 -0 -2 -4 -4 -2 -3 -3 -3 -3 -2 -2 -2
1 3 4 5 4 5 6 6 6 6 7 7 6 4 5 5 5 5 4 4 3 3 2 2 2 0 -1 -0 -2 -3 -3 -4 -3 -3 -3 -2 -3 -3
-3 -1 0 3 4 5 6 6 6 6 6 6 4 3 4 4 4 4 3 2 1 1 0 -1 -1 -1 -1 -3 -2 -4 -4 -4 -4 -3 -3 -3 -3 -3
-4 -3 -2 1 2 3 4 5 5 5 6 5 4 2 2 3 2 2 1 1 -0 -1 -3 -3 -3 -3 -3 -3 -3 -3 -4 -5 -5 -5 -5 -5 -5 -5
-4 -5 -5 -4 -1 1 2 2 4 5 5 4 1 1 1 1 0 -1 -2 -2 -1 -2 -3 -4 -4 -4 -4 -5 -4 -4 -5 -5 -6 -6 -5 -5 -6 -7
-5 -5 -5 -5 -4 -3 -1 1 3 3 3 1 1 1 1 -1 -1 -2 -3 -3 -3 -4 -5 -5 -5 -4 -5 -6 -7 -7 -4 -5 -6 -6 -6 -6 -7 -7
-5 -5 -5 -5 -4 -3 -1 1 2 2 2 1 1 1 -0 -2 -3 -4 -4 -4 -5 -5 -5 -5 -5 -5 -5 -6 -8 -8 -7 -6 -6 -6 -7 -7 -8 -8
-5 -5 -4 -4 -4 -3 -1 -0 0 0 1 1 1 0 -1 -3 -4 -4 -5 -5 -5 -6 -6 -5 -5 -5 -5 -6 -7 -9 -8 -8 -8 -8 -8 -9 -9 -10
-5 -4 -4 -4 -3 -2 -1 -0 0 -0 0 0 0 -1 -3 -4 -4 -5 -5 -5 -6 -6 -6 -5 -6 -5 -6 -5 -8 -9 -9 -9 -9 -9 -9 -8 -9 -9
-4 -4 -4 -4 -3 -2 -2 -1 -0 -0 -1 -1 -1 -2 -4 -5 -5 -5 -5 -6 -6 -6 -6 -6 -7 -6 -6 -6 -7 -8 -8 -9 -9 -9 -8 -9 -8 -8